This is the latest recevied weather packets stored in our database for station/object KI4BIY. If no packets are shown the sender has not sent any weather packets the latest 10 day(s).
| Time | Temp. | Humidity | Pressure | Rain* | Wind** | Luminosity | Snow |
|---|---|---|---|---|---|---|---|
| 1777606457 | 11.67° C | 80% | 1015.6 hPa | 0 mm | - | 0 W/m² | - |
| 1777606152 | 11.67° C | 80% | 1015.6 hPa | 0 mm | - | 0 W/m² | - |
| 1777605850 | 12.22° C | 83% | 1015.3 hPa | 0 mm | - | 0 W/m² | - |
| 1777605549 | 11.67° C | 81% | 1015.3 hPa | 0 mm | - | 0 W/m² | - |
| 1777605244 | 12.22° C | 83% | 1015.4 hPa | 0 mm | - | 0 W/m² | - |
| 1777604941 | 11.67° C | 80% | 1015.3 hPa | 0 mm | - | 0 W/m² | - |
| 1777604636 | 12.22° C | 80% | 1015.4 hPa | 0 mm | - | 0 W/m² | - |
| 1777604334 | 12.22° C | 82% | 1015.4 hPa | 0 mm | - | 0 W/m² | - |
| 1777604033 | 12.22° C | 78% | 1015.7 hPa | 0 mm | - | 0 W/m² | - |
| 1777603730 | 12.22° C | 79% | 1015.6 hPa | 0 mm | - | 0 W/m² | - |
| 1777603427 | 12.22° C | 81% | 1015.7 hPa | 0 mm | - | 0 W/m² | - |
| 1777603122 | 12.22° C | 80% | 1015.5 hPa | 0 mm | - | 0 W/m² | - |
| 1777602817 | 12.22° C | 79% | 1015.3 hPa | 0 mm | - | 0 W/m² | - |
| 1777602513 | 12.22° C | 79% | 1015.5 hPa | 0 mm | - | 0 W/m² | - |
| 1777602209 | 12.22° C | 81% | 1015.6 hPa | 0 mm | - | 0 W/m² | - |
| 1777601905 | 12.22° C | 81% | 1015.1 hPa | 0 mm | - | 0 W/m² | - |
| 1777601600 | 12.22° C | 79% | 1015.3 hPa | 0 mm | - | 0 W/m² | - |
| 1777601295 | 12.78° C | 78% | 1015.2 hPa | 0 mm | - | 0 W/m² | - |
| 1777600993 | 12.78° C | 78% | 1014.9 hPa | 0 mm | - | 0 W/m² | - |
| 1777600689 | 12.78° C | 76% | 1015.1 hPa | 0 mm | - | 0 W/m² | - |
| 1777600385 | 12.78° C | 75% | 1015 hPa | 0 mm | - | 0 W/m² | - |
| 1777600081 | 12.78° C | 75% | 1015.1 hPa | 0 mm | - | 0 W/m² | - |
| 1777599777 | 12.78° C | 75% | 1015 hPa | 0 mm | - | 0 W/m² | - |
| 1777599473 | 12.78° C | 78% | 1015 hPa | 0 mm | - | 0 W/m² | - |
| 1777599169 | 12.78° C | 71% | 1015.2 hPa | 0 mm | - | 0 W/m² | - |
* Rain latest hour (hover to see other rain measurements)
** Current wind speed in m/s (hover to see current wind gust speed)